[[{"header":{"parameterUnit":"m.s-1","parameterCategory":1,"la1":30.2991,"la2":30.254,"lo1":-89.0895,"lo2":-89.0444,"dy":0.0017,"dx":0.0017,"nx":28,"ny":28,"refTime":"2025-06-20T21:00:00:Z","depth":0,"parameterNumber":2,"parameterNumberName":"U-component_of_WINDS"},"data":[0,0,0,0,0,0,0,0,0,0,0,0,0,0,0,0,0,0,0,0,0,0,0,0,0,0,0,0,0,0,0,0,0,0,0,0,0,0,0,0,0,0,0,0,0,0,0,0,0,0,0,0,0,0,0,0,0,0,0.7588,0.7587,0,0.7515,0.7514,0.7513,0.7473,0.7473,0.7473,0.7473,0.74,0.7398,0.7396,0,0,0,0,0,0,0,0,0,0,0,0,0,0.7695,0.7693,0.7588,0.7587,0.7586,0.7515,0.7514,0.7513,0.7473,0.7473,0.7473,0.7473,0.74,0.7398,0.7396,0,0,0,0,0,0,0,0,0,0,0,0,0,0.7638,0.7693,0.7588,0.7558,0.7554,0.7515,0.7514,0.7513,0.7474,0.7473,0.7473,0.7473,0.7401,0.7399,0.7396,0.7382,0,0,0.7387,0.7386,0,0,0,0,0,0,0,0,0.7641,0.7634,0.7563,0.756,0.7556,0.7503,0.7525,0.7469,0.7474,0.7504,0.7473,0.7473,0.7434,0.7429,0.7416,0.7378,0.7375,0.7387,0.7385,0.7384,0.7383,0,0,0,0,0,0,0,0.7645,0.7637,0.7559,0.7562,0.7558,0.7549,0.754,0.7514,0.7471,0.7502,0.7498,0.749,0.7432,0.7418,0.7414,0.7374,0.7387,0.7385,0.7383,0.7382,0.7324,0.7324,0,0,0,0,0,0,0.7654,0.7641,0.7561,0.7557,0.7599,0.7547,0.7537,0.752,0.7471,0.7464,0.7491,0.7489,0.7423,0.7417,0.7411,0.7393,0.7384,0.7382,0.738,0.7324,0.7324,0.7324,0,0,0,0,0,0,0.7656,0.7647,0.7564,0.7598,0.7587,0.7545,0.7526,0.7519,0.7505,0.7463,0.7455,0.7484,0.7423,0.7415,0.739,0.739,0.738,0.7378,0.7324,0.7324,0.7324,0.7355,0,0,0,0,0,0,0.766,0.7648,0.7642,0.7598,0.7585,0.7544,0.7526,0.7518,0.75,0.7497,0.7455,0.7448,0.7422,0.7394,0.7387,0.7386,0.7376,0.7324,0.7324,0.7324,0.7354,0.7357,0.7359,0,0,0,0,0,0.7664,0.7653,0.7642,0.7632,0.7576,0.7544,0.7536,0.7507,0.75,0.7494,0.7467,0.7449,0.7391,0.7392,0.7384,0.7381,0.7324,0.7324,0.7324,0.7353,0.7356,0.7359,0,0,0,0,0,0,0.7698,0.7647,0.7633,0.7609,0.7581,0.7537,0.7528,0.7511,0.7484,0.7483,0.7447,0.7438,0.7417,0.7396,0.7399,0.7366,0.7355,0.7354,0.738,0.7383,0.7385,0.7391,0.7373,0,0,0,0,0,0.7703,0.768,0.7637,0.7619,0.7606,0.757,0.7555,0.7534,0.7504,0.7492,0.7464,0.7436,0.7411,0.7396,0.7371,0.7351,0.7342,0.7346,0.7348,0.735,0.7349,0.7339,0.7341,0.7325,0.7325,0.7325,0,0,0.7712,0.7682,0.7669,0.7626,0.7602,0.758,0.756,0.7537,0.7521,0.7489,0.7464,0.7442,0.7409,0.7387,0.7376,0.7369,0.7352,0.735,0.7352,0.735,0.734,0.7341,0.7343,0.7326,0.7325,0.7325,0,0,0.7719,0.7693,0.7676,0.7653,0.7617,0.7593,0.7589,0.7548,0.7533,0.7507,0.7483,0.7463,0.7421,0.7399,0.7382,0.7383,0.7366,0.7376,0.7387,0.7378,0.7379,0.738,0.7382,0.7382,0.7375,0.7375,0.7375,0,0.7735,0.7701,0.7669,0.7649,0.7631,0.7601,0.7584,0.7563,0.7522,0.751,0.7504,0.7452,0.7427,0.74,0.7401,0.7388,0.7383,0.738,0.7382,0.7382,0.7383,0.7383,0.7384,0.7377,0.7377,0.7376,0.7376,0,0.7723,0.77,0.7691,0.7652,0.7633,0.7614,0.7581,0.7566,0.7548,0.7526,0.7501,0.747,0.744,0.7432,0.7414,0.7403,0.74,0.7388,0.7376,0.7386,0.7386,0.7386,0.7379,0.7378,0.7378,0.7378,0,0,0.7748,0.7693,0.769,0.7673,0.7632,0.7614,0.7595,0.7565,0.7553,0.7526,0.751,0.7476,0.7465,0.7446,0.7426,0.7417,0.7421,0.7406,0.7405,0.7411,0.741,0.742,0.742,0.741,0.741,0.741,0.7413,0,0.7749,0.7713,0.7685,0.766,0.7639,0.7611,0.7595,0.7569,0.7548,0.7528,0.7505,0.7482,0.7468,0.7457,0.7448,0.7423,0.7421,0.7422,0.7396,0.7395,0.7405,0.742,0.743,0.7434,0.7413,0.7413,0.7413,0,0.7744,0.7719,0.7692,0.7655,0.7645,0.7631,0.7602,0.7583,0.7554,0.7539,0.7519,0.7498,0.7479,0.7469,0.7442,0.7444,0.7432,0.7418,0.7418,0.7415,0.7405,0.7418,0.7435,0.7436,0.7412,0.7412,0.7412,0,0.7766,0.7725,0.7704,0.7689,0.7646,0.7637,0.7618,0.7589,0.7573,0.7548,0.7538,0.7512,0.7497,0.7478,0.7451,0.7446,0.7427,0.7415,0.7416,0.7417,0.7413,0.7414,0.7429,0.7404,0.7404,0.7404,0.7404,0,0.777,0.7755,0.7713,0.77,0.7683,0.7652,0.7636,0.7615,0.759,0.7573,0.7548,0.7533,0.7498,0.748,0.7459,0.7441,0.7434,0.7423,0.7418,0.7425,0.7427,0.7417,0.7416,0.7404,0.7404,0.7404,0.7404,0,0.7791,0.7762,0.7738,0.7699,0.7689,0.7678,0.7646,0.7633,0.7611,0.7591,0.7584,0.755,0.7527,0.7499,0.7467,0.7453,0.7437,0.7429,0.7447,0.7444,0.7447,0.7447,0.7456,0.7457,0.7432,0.7432,0.7432,0,0.7796,0.7783,0.7744,0.7731,0.7714,0.7693,0.7677,0.7647,0.7632,0.7599,0.7591,0.7566,0.7545,0.751,0.7483,0.7459,0.745,0.7455,0.7446,0.7455,0.7451,0.7453,0.7452,0.7457,0.7457,0.7458,0.7458,0,0.7807,0.7794,0.7772,0.7746,0.7728,0.7706,0.7682,0.7674,0.7639,0.7624,0.76,0.7584,0.7552,0.7528,0.7501,0.7483,0.7466,0.7461,0.746,0.7468,0.748,0.7475,0.7454,0.7461,0.7461,0.7461,0.746,0.746,0.782,0.7809,0.778,0.7757,0.7737,0.7716,0.7703,0.768,0.766,0.7631,0.7615,0.7593,0.7566,0.7528,0.7511,0.7493,0.7487,0.7485,0.7485,0.7485,0.7488,0.7483,0.7488,0.7488,0.7488,0.7488,0.7488,0,0.7831,0.7812,0.7791,0.776,0.7742,0.7727,0.7702,0.7688,0.7669,0.7645,0.7625,0.7599,0.7577,0.7549,0.7525,0.7517,0.7508,0.7512,0.7512,0.7509,0.7495,0.7498,0.7519,0.7519,0.7519,0.7519,0.7519,0.7519,0.7835,0.7815,0.7799,0.777,0.7751,0.7728,0.7715,0.7697,0.7678,0.765,0.7632,0.7614,0.7589,0.7564,0.7543,0.7536,0.7528,0.7534,0.7525,0.7512,0.7509,0.7507,0.751,0.7533,0.7533,0.754,0.754,0.754]},{"header":{"parameterUnit":"m.s-1","parameterCategory":1,"la1":30.2991,"la2":30.254,"lo1":-89.0895,"lo2":-89.0444,"dy":0.0017,"dx":0.0017,"nx":28,"ny":28,"refTime":"2025-06-20T21:00:00:Z","depth":0,"parameterNumber":3,"parameterNumberName":"V-component_of_WINDS"},"data":[0,0,0,0,0,0,0,0,0,0,0,0,0,0,0,0,0,0,0,0,0,0,0,0,0,0,0,0,0,0,0,0,0,0,0,0,0,0,0,0,0,0,0,0,0,0,0,0,0,0,0,0,0,0,0,0,0,0,-1.3528,-1.3528,0,-1.3572,-1.3573,-1.3573,-1.3573,-1.3572,-1.3571,-1.3571,-1.3615,-1.3617,-1.3618,0,0,0,0,0,0,0,0,0,0,0,0,0,-1.3442,-1.3444,-1.3528,-1.3528,-1.3529,-1.3572,-1.3573,-1.3573,-1.3573,-1.3572,-1.3571,-1.3571,-1.3614,-1.3616,-1.3619,0,0,0,0,0,0,0,0,0,0,0,0,0,-1.3482,-1.3444,-1.3528,-1.3534,-1.3535,-1.3572,-1.3573,-1.3573,-1.3573,-1.3572,-1.3571,-1.357,-1.3614,-1.3616,-1.3619,-1.3652,0,0,-1.3627,-1.3628,0,0,0,0,0,0,0,0,-1.348,-1.3485,-1.3532,-1.3533,-1.3535,-1.3566,-1.3559,-1.36,-1.3573,-1.3558,-1.3571,-1.357,-1.3599,-1.3603,-1.3613,-1.3654,-1.3656,-1.3627,-1.3628,-1.363,-1.363,0,0,0,0,0,0,0,-1.3477,-1.3484,-1.3545,-1.3533,-1.3534,-1.3534,-1.3539,-1.3567,-1.3583,-1.356,-1.356,-1.3565,-1.36,-1.3611,-1.3614,-1.3657,-1.3627,-1.3629,-1.3631,-1.3632,-1.373,-1.3731,0,0,0,0,0,0,-1.3473,-1.3481,-1.3544,-1.3547,-1.3505,-1.3537,-1.3542,-1.3557,-1.3583,-1.3586,-1.3566,-1.3565,-1.3607,-1.3611,-1.3616,-1.3658,-1.363,-1.3632,-1.3633,-1.3729,-1.373,-1.3731,0,0,0,0,0,0,-1.3472,-1.3479,-1.3542,-1.3514,-1.3522,-1.3539,-1.3556,-1.3558,-1.3569,-1.3588,-1.359,-1.3574,-1.3606,-1.3612,-1.3644,-1.366,-1.3633,-1.3636,-1.3728,-1.3729,-1.3731,-1.3743,0,0,0,0,0,0,-1.3469,-1.3478,-1.3491,-1.3514,-1.3524,-1.357,-1.3557,-1.356,-1.3574,-1.3573,-1.3596,-1.3599,-1.3606,-1.364,-1.3646,-1.3663,-1.3638,-1.3726,-1.3728,-1.373,-1.3741,-1.3744,-1.3747,0,0,0,0,0,-1.3466,-1.3492,-1.3492,-1.3499,-1.354,-1.357,-1.3576,-1.3584,-1.3575,-1.3588,-1.36,-1.3598,-1.3657,-1.3643,-1.365,-1.3668,-1.3725,-1.3728,-1.373,-1.3739,-1.3744,-1.3747,0,0,0,0,0,0,-1.3469,-1.3495,-1.3495,-1.3529,-1.3548,-1.357,-1.3587,-1.3588,-1.3608,-1.3607,-1.3615,-1.3621,-1.3653,-1.3663,-1.3648,-1.3703,-1.369,-1.3694,-1.3695,-1.3699,-1.3702,-1.3699,-1.364,0,0,0,0,0,-1.3474,-1.3497,-1.3518,-1.3546,-1.3556,-1.357,-1.3583,-1.3588,-1.3607,-1.3615,-1.3629,-1.3648,-1.367,-1.3685,-1.3707,-1.3742,-1.3748,-1.3758,-1.3761,-1.3764,-1.3767,-1.3789,-1.3794,-1.3739,-1.3739,-1.3739,0,0,-1.3484,-1.3501,-1.3515,-1.3548,-1.3562,-1.3586,-1.3576,-1.3601,-1.3619,-1.3618,-1.365,-1.3661,-1.3682,-1.3716,-1.3732,-1.3726,-1.3784,-1.3767,-1.3769,-1.3771,-1.3792,-1.3797,-1.3801,-1.3741,-1.374,-1.374,0,0,-1.3515,-1.353,-1.3556,-1.3571,-1.3594,-1.3604,-1.361,-1.3633,-1.364,-1.3672,-1.3673,-1.3694,-1.3732,-1.3748,-1.3761,-1.3799,-1.3799,-1.3806,-1.3823,-1.3844,-1.3848,-1.3852,-1.3867,-1.3872,-1.3809,-1.3809,-1.3809,0,-1.3525,-1.3561,-1.3569,-1.3595,-1.361,-1.3611,-1.3638,-1.3652,-1.3681,-1.3691,-1.3684,-1.3734,-1.3748,-1.3787,-1.3796,-1.3806,-1.3814,-1.3804,-1.3847,-1.3851,-1.3855,-1.3869,-1.3875,-1.381,-1.381,-1.381,-1.381,0,-1.3572,-1.3597,-1.3615,-1.3644,-1.3661,-1.3687,-1.37,-1.3715,-1.3719,-1.3729,-1.3762,-1.378,-1.3806,-1.3815,-1.3818,-1.3855,-1.3851,-1.3845,-1.3833,-1.3861,-1.3875,-1.388,-1.3811,-1.3811,-1.3811,-1.3811,0,0,-1.3606,-1.364,-1.3647,-1.3661,-1.3687,-1.3706,-1.3733,-1.3759,-1.3773,-1.3793,-1.3816,-1.3849,-1.3845,-1.386,-1.3865,-1.3883,-1.3914,-1.3875,-1.3876,-1.3883,-1.3957,-1.3962,-1.3968,-1.3913,-1.3914,-1.3915,-1.3956,0,-1.3641,-1.3688,-1.3697,-1.3739,-1.3763,-1.3765,-1.3788,-1.3807,-1.3818,-1.3839,-1.3851,-1.3875,-1.3867,-1.3876,-1.3894,-1.3906,-1.3929,-1.3903,-1.3936,-1.3937,-1.3931,-1.3975,-1.398,-1.4017,-1.3961,-1.3962,-1.3963,0,-1.3687,-1.371,-1.3754,-1.3779,-1.3789,-1.381,-1.3836,-1.3856,-1.3877,-1.3884,-1.3901,-1.3905,-1.3933,-1.3918,-1.3958,-1.394,-1.3954,-1.3962,-1.3964,-1.3968,-1.3952,-1.3981,-1.4029,-1.4035,-1.3971,-1.397,-1.397,0,-1.3709,-1.3751,-1.3783,-1.3794,-1.3823,-1.3838,-1.3851,-1.3871,-1.3887,-1.391,-1.392,-1.3945,-1.3959,-1.3978,-1.3988,-1.3977,-1.4027,-1.4014,-1.4034,-1.4034,-1.4045,-1.4045,-1.4097,-1.4052,-1.4052,-1.4052,-1.4052,0,-1.3748,-1.3775,-1.3794,-1.3814,-1.3845,-1.3855,-1.3885,-1.3898,-1.3916,-1.3939,-1.3942,-1.3963,-1.3974,-1.3997,-1.4005,-1.4038,-1.4043,-1.405,-1.4052,-1.405,-1.405,-1.406,-1.4058,-1.4054,-1.4053,-1.4053,-1.4053,0,-1.3778,-1.3791,-1.3827,-1.3852,-1.3859,-1.3881,-1.3902,-1.3922,-1.3933,-1.3962,-1.3969,-1.3986,-1.4013,-1.4025,-1.4058,-1.4064,-1.4101,-1.41,-1.4094,-1.4095,-1.4116,-1.4114,-1.4177,-1.4187,-1.4134,-1.4135,-1.4135,0,-1.3802,-1.3824,-1.3851,-1.3867,-1.3881,-1.3906,-1.3922,-1.3933,-1.395,-1.3977,-1.3994,-1.4022,-1.4045,-1.4088,-1.4103,-1.4129,-1.413,-1.4151,-1.4134,-1.4132,-1.4132,-1.4131,-1.4134,-1.4154,-1.4154,-1.4155,-1.4155,0,-1.3844,-1.385,-1.3874,-1.3901,-1.3921,-1.3943,-1.3964,-1.3976,-1.3991,-1.401,-1.4038,-1.4056,-1.4091,-1.4119,-1.4146,-1.4159,-1.416,-1.416,-1.4167,-1.4166,-1.4162,-1.4166,-1.4104,-1.4159,-1.4158,-1.4158,-1.4158,-1.4158,-1.3873,-1.3893,-1.3916,-1.3943,-1.3961,-1.3981,-1.4001,-1.4015,-1.4039,-1.4069,-1.4074,-1.4105,-1.4127,-1.4163,-1.4177,-1.4202,-1.4197,-1.4205,-1.4208,-1.421,-1.4212,-1.4157,-1.4206,-1.4206,-1.4206,-1.4206,-1.4206,0,-1.3917,-1.3932,-1.3957,-1.3987,-1.4009,-1.4008,-1.4032,-1.405,-1.4077,-1.4098,-1.4121,-1.4154,-1.4182,-1.4199,-1.4227,-1.4243,-1.4244,-1.425,-1.425,-1.4253,-1.4214,-1.4207,-1.4249,-1.4249,-1.4249,-1.4249,-1.4249,-1.4249,-1.3942,-1.3976,-1.3985,-1.4028,-1.4043,-1.4074,-1.4088,-1.4106,-1.4123,-1.4161,-1.4184,-1.4195,-1.4215,-1.4245,-1.427,-1.4275,-1.4285,-1.4291,-1.4296,-1.426,-1.4255,-1.4251,-1.4244,-1.4293,-1.4293,-1.4333,-1.4333,-1.4333]}]]